This is the latest recevied weather packets stored in our database for station/object W4TJP. If no packets are shown the sender has not sent any weather packets the latest 10 day(s).
| Time | Temp. | Humidity | Pressure | Rain* | Wind** | Luminosity | Snow |
|---|---|---|---|---|---|---|---|
| 1777676795 | 14.44° C | 64% | 1012.9 hPa | 0 mm | - | 52 W/m² | - |
| 1777676493 | 15° C | 65% | 1012.7 hPa | 0 mm | - | 42 W/m² | - |
| 1777676191 | 15° C | 63% | 1012.6 hPa | 0 mm | - | 55 W/m² | - |
| 1777675887 | 15.56° C | 64% | 1012.6 hPa | 0 mm | - | 73 W/m² | - |
| 1777675584 | 15.56° C | 65% | 1012.6 hPa | 0 mm | - | 78 W/m² | - |
| 1777675281 | 15.56° C | 64% | 1012.5 hPa | 0 mm | - | 81 W/m² | - |
| 1777674978 | 15.56° C | 65% | 1012.7 hPa | 0 mm | - | 88 W/m² | - |
| 1777674674 | 15.56° C | 66% | 1012.6 hPa | 0 mm | - | 88 W/m² | - |
| 1777674386 | 15.56° C | 64% | 1012.4 hPa | 0 mm | - | 98 W/m² | - |
| 1777674068 | 15.56° C | 65% | 1012.5 hPa | 0 mm | - | 101 W/m² | - |
| 1777673764 | 15.56° C | 66% | 1012.7 hPa | 0 mm | - | 93 W/m² | - |
| 1777673461 | 16.11° C | 65% | 1012.5 hPa | 0 mm | - | 68 W/m² | - |
| 1777673159 | 16.11° C | 62% | 1012.5 hPa | 0 mm | - | 94 W/m² | - |
| 1777672856 | 16.11° C | 64% | 1012.4 hPa | 0 mm | - | 135 W/m² | - |
| 1777672552 | 16.11° C | 63% | 1012.6 hPa | 0 mm | - | 108 W/m² | - |
| 1777672247 | 16.67° C | 62% | 1012.5 hPa | 0 mm | - | 84 W/m² | - |
| 1777671943 | 16.67° C | 62% | 1012.6 hPa | 0 mm | - | 105 W/m² | - |
| 1777671639 | 16.67° C | 61% | 1012.7 hPa | 0 mm | - | 114 W/m² | - |
| 1777671336 | 17.22° C | 61% | 1012.8 hPa | 0 mm | - | 137 W/m² | - |
| 1777671032 | 17.78° C | 57% | 1012.9 hPa | 0 mm | - | 139 W/m² | - |
| 1777670728 | 17.22° C | 56% | 1012.8 hPa | 0 mm | - | 170 W/m² | - |
| 1777670426 | 17.22° C | 58% | 1012.7 hPa | 0 mm | - | 170 W/m² | - |
| 1777670122 | 17.22° C | 55% | 1012.7 hPa | 0 mm | - | 151 W/m² | - |
| 1777669821 | 17.22° C | 55% | 1012.5 hPa | 0 mm | - | 139 W/m² | - |
| 1777669516 | 17.78° C | 56% | 1012.7 hPa | 0 mm | - | 158 W/m² | - |
* Rain latest hour (hover to see other rain measurements)
** Current wind speed in m/s (hover to see current wind gust speed)